Location: El Azufral
(10.3513°N, 67.1528°W)
Time: 09:38:40
(UTC+00:00)

USA 234 - Pass Details

Date: 13 June 2024
Orbit: 1100 x 1107 km, 123.0° (Epoch: 08 July)

Event Time Altitude Azimuth Distance (km) Brightness Sun altitude
Rises 23:16:52 0° 36° (NE) 3,904 6.0 -6.7°
Reaches altitude 10° 23:19:21 10° 37° (NE) 2,947 5.4 -7.2°
Maximum altitude 23:25:52 89° 129° (SE) 1,101 3.3 -8.7°
Drops below altitude 10° 23:32:24 10° 217° (SW) 2,949 5.7 -10.1°
Sets 23:34:52 0° 217° (SW) 3,907 6.3 -10.7°
